BARN25 YMES-YWLM

Flight info

Callsign BARN25
Flight time 0h 53m
Altitude 45000
Route COM DCT NWA DCT WOL DCT TESAT DCT ASUVA
Aircraft F35/M-SDIM1T/H

Departure

Time 2026-05-04 10:20
Airport RAAF Base East Sale (YMES)

Arrival

Time 2026-05-04 11:13
Airport Newcastle Airport (YWLM)
Time Latitude Longitude Altitude Speed Heading
2026-05-04 09:54 -38.09870 147.13274 24 ft 0 kts 188°
2026-05-04 10:13 -38.09876 147.13273 23 ft 4 kts 188°
2026-05-04 10:13 -38.09897 147.13246 25 ft 8 kts 274°
2026-05-04 10:13 -38.09886 147.13157 25 ft 9 kts 279°
2026-05-04 10:13 -38.09841 147.13128 25 ft 8 kts 12°
2026-05-04 10:14 -38.09824 147.13192 24 ft 10 kts 99°
2026-05-04 10:14 -38.09839 147.13311 25 ft 14 kts 99°
2026-05-04 10:16 -38.09903 147.14106 29 ft 3 kts 18°
2026-05-04 10:16 -38.09879 147.14116 29 ft 10 kts 32°
2026-05-04 10:16 -38.09871 147.14233 27 ft 20 kts 99°
2026-05-04 10:16 -38.09893 147.14409 26 ft 21 kts 98°
2026-05-04 10:17 -38.09917 147.14621 22 ft 26 kts 98°
2026-05-04 10:17 -38.09948 147.14848 21 ft 26 kts 99°
2026-05-04 10:19 -38.09965 147.15298 27 ft 6 kts 42°
2026-05-04 10:19 -38.09898 147.15328 28 ft 8 kts
2026-05-04 10:19 -38.09874 147.15307 27 ft 0 kts 279°
2026-05-04 10:19 -38.09840 147.15034 24 ft 125 kts 279°
2026-05-04 10:20 -38.09593 147.13040 74 ft 332 kts 279°
2026-05-04 10:20 -38.09258 147.10151 4076 ft 304 kts 282°
2026-05-04 10:20 -38.08531 147.07652 10905 ft 340 kts 312°
2026-05-04 10:20 -38.05957 147.06725 15763 ft 475 kts 15°
2026-05-04 10:21 -38.03501 147.09746 20576 ft 502 kts 58°
2026-05-04 10:21 -38.01928 147.13579 27845 ft 472 kts 52°
2026-05-04 10:21 -38.00307 147.17301 34398 ft 519 kts 51°
2026-05-04 10:21 -37.98378 147.21503 37130 ft 565 kts 53°
2026-05-04 10:22 -37.94387 147.30080 42259 ft 559 kts 54°
2026-05-04 10:22 -37.92385 147.34348 44456 ft 577 kts 55°
2026-05-04 10:22 -37.90220 147.38631 44622 ft 586 kts 43°
2026-05-04 10:23 -37.87413 147.42166 44747 ft 557 kts 30°
2026-05-04 10:23 -37.84298 147.44656 44839 ft 510 kts 21°
2026-05-04 10:25 -37.63826 147.63801 44948 ft 531 kts 34°
2026-05-04 10:25 -37.58130 147.69738 44966 ft 533 kts 34°
2026-05-04 10:26 -37.52437 147.75710 44975 ft 532 kts 34°
2026-05-04 10:26 -37.46750 147.81677 44981 ft 532 kts 33°
2026-05-04 10:27 -37.41033 147.87636 44989 ft 534 kts 34°
2026-05-04 10:27 -37.35319 147.93581 44978 ft 533 kts 34°
2026-05-04 10:28 -37.29582 147.99550 44995 ft 536 kts 33°
2026-05-04 10:28 -37.23868 148.05477 45005 ft 535 kts 34°
2026-05-04 10:29 -37.18131 148.11413 44999 ft 535 kts 34°
2026-05-04 10:29 -37.12421 148.17311 45010 ft 529 kts 33°
2026-05-04 10:30 -37.06725 148.23178 45010 ft 532 kts 34°
2026-05-04 10:30 -37.00995 148.29085 45020 ft 533 kts 33°
2026-05-04 10:31 -36.95268 148.34960 45019 ft 532 kts 33°
2026-05-04 10:32 -36.75289 148.55391 45043 ft 530 kts 32°
2026-05-04 10:33 -36.69625 148.61151 45040 ft 527 kts 32°
2026-05-04 10:33 -36.63984 148.66872 45053 ft 521 kts 32°
2026-05-04 10:34 -36.58351 148.72588 45051 ft 523 kts 32°
2026-05-04 10:34 -36.52698 148.78307 45021 ft 522 kts 32°
2026-05-04 10:35 -36.47080 148.83979 45047 ft 520 kts 32°
2026-05-04 10:35 -36.41451 148.89653 45055 ft 522 kts 32°
2026-05-04 10:36 -36.35796 148.95289 45058 ft 520 kts 32°
2026-05-04 10:36 -36.30461 149.01480 45053 ft 524 kts 35°
2026-05-04 10:37 -36.25066 149.07604 45059 ft 528 kts 36°
2026-05-04 10:37 -36.19658 149.13758 45045 ft 528 kts 36°
2026-05-04 10:39 -36.00771 149.35284 45062 ft 529 kts 36°
2026-05-04 10:40 -35.95348 149.41431 45059 ft 529 kts 36°
2026-05-04 10:40 -35.89925 149.47566 45060 ft 528 kts 36°
2026-05-04 10:41 -35.84501 149.53693 45045 ft 530 kts 36°
2026-05-04 10:41 -35.79054 149.59830 45062 ft 530 kts 36°
2026-05-04 10:42 -35.73608 149.65955 45054 ft 530 kts 36°
2026-05-04 10:42 -35.68152 149.72085 45035 ft 532 kts 36°
2026-05-04 10:43 -35.62679 149.78217 45046 ft 531 kts 36°
2026-05-04 10:45 -35.40798 150.02618 45047 ft 532 kts 36°
2026-05-04 10:45 -35.35301 150.08719 45048 ft 534 kts 36°
2026-05-04 10:46 -35.29794 150.14818 45047 ft 534 kts 36°
2026-05-04 10:46 -35.24286 150.20911 45047 ft 533 kts 36°
2026-05-04 10:47 -35.18778 150.26986 45038 ft 535 kts 36°
2026-05-04 10:47 -35.13276 150.33046 45039 ft 535 kts 36°
2026-05-04 10:49 -34.90561 150.56186 45022 ft 520 kts 20°
2026-05-04 10:50 -34.85211 150.59532 44998 ft 524 kts 24°
2026-05-04 10:52 -34.59719 150.76519 45016 ft 522 kts 23°
2026-05-04 10:52 -34.56528 150.78693 44410 ft 527 kts 21°
2026-05-04 10:52 -34.53276 150.80719 43568 ft 523 kts 21°
2026-05-04 10:54 -34.30846 150.95102 38338 ft 521 kts 19°
2026-05-04 10:54 -34.27643 150.97141 37495 ft 521 kts 19°
2026-05-04 10:56 -34.05296 151.11350 32228 ft 520 kts 20°
2026-05-04 10:56 -34.02097 151.13375 31483 ft 518 kts 20°
2026-05-04 10:56 -33.98912 151.15393 30756 ft 517 kts 20°
2026-05-04 10:57 -33.95812 151.17636 30001 ft 525 kts 28°
2026-05-04 10:57 -33.92866 151.20266 29159 ft 529 kts 31°
2026-05-04 10:57 -33.90055 151.23190 28310 ft 540 kts 38°
2026-05-04 10:57 -33.87428 151.26537 27506 ft 543 kts 40°
2026-05-04 10:58 -33.84792 151.29687 26739 ft 541 kts 36°
2026-05-04 10:58 -33.82049 151.32877 25981 ft 544 kts 39°
2026-05-04 10:58 -33.79412 151.36070 25248 ft 545 kts 38°
2026-05-04 10:58 -33.76693 151.39245 24545 ft 546 kts 39°
2026-05-04 10:59 -33.73981 151.42469 23846 ft 548 kts 39°
2026-05-04 10:59 -33.71272 151.45679 23078 ft 548 kts 39°
2026-05-04 10:59 -33.68541 151.48890 22283 ft 551 kts 39°
2026-05-04 10:59 -33.65806 151.52127 21516 ft 553 kts 39°
2026-05-04 11:00 -33.63113 151.55300 20781 ft 554 kts 40°
2026-05-04 11:01 -33.43494 151.78338 15619 ft 571 kts 41°
2026-05-04 11:02 -33.40650 151.81665 14895 ft 572 kts 41°
2026-05-04 11:02 -33.37799 151.84994 14188 ft 574 kts 41°
2026-05-04 11:05 -33.10975 152.16187 6978 ft 277 kts 39°
2026-05-04 11:06 -33.09603 152.17768 6974 ft 279 kts 37°
2026-05-04 11:06 -33.07945 152.18870 6267 ft 263 kts
2026-05-04 11:06 -33.06221 152.18653 5497 ft 252 kts 332°
2026-05-04 11:06 -33.04771 152.17546 4771 ft 245 kts 321°
2026-05-04 11:08 -32.96639 152.07287 2665 ft 253 kts 316°
2026-05-04 11:10 -32.88816 151.96420 1671 ft 253 kts 313°
2026-05-04 11:12 -32.82531 151.87576 656 ft 151 kts 313°
2026-05-04 11:12 -32.81852 151.86637 451 ft 149 kts 311°
2026-05-04 11:12 -32.81205 151.85732 234 ft 144 kts 311°
2026-05-04 11:12 -32.80508 151.84761 112 ft 149 kts 310°
2026-05-04 11:13 -32.79915 151.83938 34 ft 109 kts 310°
2026-05-04 11:13 -32.79522 151.83388 28 ft 68 kts 310°
2026-05-04 11:13 -32.79282 151.83052 30 ft 23 kts 311°
2026-05-04 11:13 -32.79197 151.83019 31 ft 12 kts 31°
2026-05-04 11:14 -32.79134 151.83089 32 ft 11 kts 68°
2026-05-04 11:14 -32.79155 151.83166 32 ft 14 kts 131°
2026-05-04 11:14 -32.79218 151.83252 32 ft 13 kts 130°
2026-05-04 11:16 -32.79085 151.83732 32 ft 8 kts
2026-05-04 11:16 -32.79037 151.83701 32 ft 8 kts 334°
2026-05-04 11:16 -32.78982 151.83725 32 ft 11 kts 30°
2026-05-04 11:17 -32.78933 151.83778 32 ft 9 kts 53°
2026-05-04 11:17 -32.78888 151.83853 32 ft 13 kts 53°
2026-05-04 11:19 -32.78948 151.84024 32 ft 0 kts 234°